TimeCST,TemperatureF,Dew PointF,Humidity,Sea Level PressureIn,VisibilityMPH,Wind Direction,Wind SpeedMPH,Gust SpeedMPH,PrecipitationIn,Events,Conditions,WindDirDegrees,DateUTC
12:15 AM,62.2,62.2,100,29.81,10.0,SW,6.9,-,N/A,,Overcast,220,2013-11-26 06:15:00
12:35 AM,62.2,62.2,100,29.78,10.0,SSW,5.8,-,N/A,Thunderstorm,Thunderstorm,200,2013-11-26 06:35:00
12:55 AM,62.1,62.1,100,29.77,7.0,SSE,5.8,-,N/A,Rain,Light Rain,150,2013-11-26 06:55:00
1:15 AM,58.3,58.3,100,29.76,1.8,ESE,4.6,-,N/A,Thunderstorm,Overcast,110,2013-11-26 07:15:00
1:35 AM,55.6,55.6,100,29.77,1.5,North,8.1,18.4,0.04,Thunderstorm,Overcast,10,2013-11-26 07:35:00
1:55 AM,53.4,53.4,100,29.78,5.0,ENE,18.4,24.2,0.21,Rain-Thunderstorm,Light Thunderstorms and Rain,70,2013-11-26 07:55:00
2:15 AM,50.4,50.4,100,29.79,4.0,NE,21.9,31.1,0.04,Rain,Rain,40,2013-11-26 08:15:00
2:35 AM,49.1,49.1,100,29.79,7.0,NE,17.3,28.8,0.05,Rain,Light Rain,40,2013-11-26 08:35:00
2:55 AM,48.2,48.2,100,29.79,2.5,NE,17.3,31.1,0.10,Rain,Light Rain,40,2013-11-26 08:55:00
3:15 AM,47.1,47.1,100,29.79,2.0,NE,27.6,36.8,0.06,Rain,Light Rain,50,2013-11-26 09:15:00
3:35 AM,46.8,46.8,100,29.79,10.0,NE,21.9,26.5,0.07,Rain,Light Rain,50,2013-11-26 09:35:00
3:55 AM,46.8,46.8,100,29.79,7.0,ENE,19.6,26.5,0.07,Rain,Rain,70,2013-11-26 09:55:00
4:15 AM,48.0,48.0,100,29.78,7.0,East,17.3,23.0,0.01,Rain,Light Rain,90,2013-11-26 10:15:00
4:35 AM,49.1,49.1,100,29.77,10.0,East,10.4,-,0.01,,Overcast,90,2013-11-26 10:35:00
4:55 AM,50.0,50.0,100,29.76,10.0,East,13.8,18.4,0.01,,Overcast,100,2013-11-26 10:55:00
5:15 AM,50.5,50.5,100,29.76,10.0,ENE,12.7,18.4,N/A,,Overcast,70,2013-11-26 11:15:00
5:35 AM,50.9,50.9,100,29.76,10.0,East,12.7,-,N/A,,Overcast,90,2013-11-26 11:35:00
5:55 AM,50.9,50.9,100,29.77,10.0,East,9.2,-,N/A,,Overcast,80,2013-11-26 11:55:00
6:15 AM,51.1,51.1,100,29.78,10.0,East,6.9,-,N/A,Rain,Light Rain,100,2013-11-26 12:15:00
6:35 AM,51.4,51.4,100,29.78,10.0,ENE,8.1,-,N/A,,Overcast,70,2013-11-26 12:35:00
6:55 AM,51.8,51.8,100,29.78,10.0,East,8.1,-,N/A,,Overcast,80,2013-11-26 12:55:00
7:15 AM,51.8,51.8,100,29.81,10.0,NE,10.4,-,N/A,,Overcast,40,2013-11-26 13:15:00
7:35 AM,52.5,52.5,100,29.85,10.0,North,13.8,20.7,N/A,,Overcast,360,2013-11-26 13:35:00
7:55 AM,52.2,52.2,100,29.85,10.0,North,18.4,-,N/A,,Overcast,10,2013-11-26 13:55:00
8:15 AM,51.4,51.4,100,29.87,10.0,North,13.8,23.0,N/A,,Overcast,360,2013-11-26 14:15:00
8:35 AM,51.1,51.1,100,29.86,10.0,North,16.1,20.7,N/A,,Overcast,350,2013-11-26 14:35:00
8:55 AM,49.3,49.1,99,29.89,10.0,NNW,16.1,28.8,N/A,,Overcast,330,2013-11-26 14:55:00
9:15 AM,48.6,48.4,99,29.88,5.0,NNW,13.8,19.6,N/A,Rain,Light Rain,340,2013-11-26 15:15:00
9:35 AM,48.2,48.2,100,29.89,5.0,NNW,16.1,-,N/A,,Drizzle,330,2013-11-26 15:35:00
9:55 AM,48.6,48.2,99,29.88,5.0,NNW,16.1,20.7,N/A,Rain,Rain,340,2013-11-26 15:55:00
10:15 AM,49.1,48.7,99,29.86,7.0,NNW,17.3,23.0,N/A,,Overcast,340,2013-11-26 16:15:00
10:35 AM,48.6,48.2,99,29.87,10.0,NNW,13.8,19.6,N/A,,Overcast,340,2013-11-26 16:35:00
10:55 AM,49.3,48.7,98,29.87,10.0,North,15.0,19.6,N/A,,Overcast,350,2013-11-26 16:55:00
11:15 AM,50.5,49.8,97,29.87,10.0,North,16.1,-,N/A,,Overcast,350,2013-11-26 17:15:00
11:35 AM,50.2,49.1,96,29.86,10.0,NNW,13.8,-,N/A,,Overcast,340,2013-11-26 17:35:00
11:55 AM,51.4,50.2,95,29.85,10.0,North,17.3,21.9,N/A,,Overcast,360,2013-11-26 17:55:00
12:15 PM,52.2,49.8,92,29.86,10.0,NNW,15.0,24.2,N/A,,Overcast,330,2013-11-26 18:15:00
12:35 PM,52.2,49.6,91,29.85,10.0,NNW,12.7,-,N/A,,Overcast,330,2013-11-26 18:35:00
12:55 PM,52.0,49.3,90,29.84,10.0,NNW,11.5,-,N/A,,Overcast,340,2013-11-26 18:55:00
1:15 PM,53.2,50.0,89,29.81,10.0,North,17.3,-,N/A,,Overcast,350,2013-11-26 19:15:00
1:35 PM,52.7,49.5,89,29.83,10.0,North,13.8,17.3,N/A,,Overcast,350,2013-11-26 19:35:00
1:55 PM,52.2,49.1,89,29.81,10.0,North,11.5,19.6,N/A,,Overcast,350,2013-11-26 19:55:00
2:15 PM,52.3,49.3,89,29.84,10.0,NNW,13.8,-,N/A,,Overcast,330,2013-11-26 20:15:00
2:35 PM,52.2,49.3,90,29.84,10.0,NNW,10.4,-,N/A,,Overcast,340,2013-11-26 20:35:00
2:55 PM,51.8,49.1,90,29.86,10.0,WNW,9.2,-,N/A,,Overcast,300,2013-11-26 20:55:00
3:15 PM,51.8,49.1,90,29.86,10.0,NW,9.2,-,N/A,,Overcast,320,2013-11-26 21:15:00
3:35 PM,51.8,49.1,90,29.86,10.0,NW,10.4,-,N/A,,Overcast,320,2013-11-26 21:35:00
3:55 PM,51.8,49.1,90,29.88,10.0,NW,10.4,18.4,N/A,,Overcast,310,2013-11-26 21:55:00
4:15 PM,51.8,48.7,89,29.89,10.0,WNW,11.5,20.7,N/A,,Overcast,300,2013-11-26 22:15:00
4:35 PM,50.9,48.4,91,29.90,7.0,NW,12.7,19.6,N/A,,Overcast,310,2013-11-26 22:35:00
4:55 PM,50.2,48.2,93,29.91,7.0,WNW,16.1,-,N/A,,Overcast,300,2013-11-26 22:55:00
5:15 PM,49.3,47.5,94,29.92,7.0,NW,16.1,21.9,N/A,,Overcast,310,2013-11-26 23:15:00
5:35 PM,48.7,47.3,95,29.92,7.0,NW,12.7,18.4,N/A,,Overcast,310,2013-11-26 23:35:00
5:55 PM,48.4,47.3,96,29.91,10.0,NNW,13.8,-,N/A,,Overcast,330,2013-11-26 23:55:00
6:15 PM,48.0,46.8,95,29.88,5.0,North,20.7,26.5,N/A,,Overcast,360,2013-11-27 00:15:00
6:35 PM,47.3,46.4,97,29.94,5.0,NW,9.2,17.3,N/A,Rain,Light Rain,310,2013-11-27 00:35:00
6:55 PM,47.3,46.4,97,29.95,10.0,WNW,8.1,-,N/A,,Overcast,290,2013-11-27 00:55:00
7:15 PM,47.3,46.4,97,29.98,10.0,WNW,11.5,-,N/A,,Overcast,300,2013-11-27 01:15:00
7:35 PM,46.9,45.7,95,29.96,4.0,NW,13.8,24.2,N/A,,Unknown,320,2013-11-27 01:35:00
7:55 PM,46.6,45.5,96,29.99,3.0,WNW,11.5,16.1,N/A,,Overcast,300,2013-11-27 01:55:00
8:15 PM,45.9,45.7,99,30.00,2.5,West,10.4,16.1,0.01,,Overcast,280,2013-11-27 02:15:00
8:35 PM,45.1,45.1,100,30.01,3.0,WNW,11.5,16.1,0.03,,Overcast,290,2013-11-27 02:35:00
8:55 PM,44.6,44.6,100,30.01,3.0,NW,18.4,21.9,0.04,,Overcast,320,2013-11-27 02:55:00
9:15 PM,44.1,44.1,100,30.02,3.0,NW,12.7,-,0.01,,Overcast,310,2013-11-27 03:15:00
9:35 PM,43.7,43.7,100,30.03,7.0,NW,13.8,21.9,0.01,,Overcast,310,2013-11-27 03:35:00
9:55 PM,42.8,42.8,100,30.03,7.0,NW,17.3,-,0.01,,Overcast,320,2013-11-27 03:55:00
10:15 PM,43.0,43.0,100,30.04,10.0,NW,13.8,20.7,N/A,,Overcast,320,2013-11-27 04:15:00
10:35 PM,42.8,42.8,100,30.04,10.0,NNW,13.8,21.9,N/A,Rain,Light Rain,330,2013-11-27 04:35:00
10:55 PM,42.3,42.3,100,30.03,10.0,NNW,16.1,23.0,0.01,,Overcast,340,2013-11-27 04:55:00
11:15 PM,41.9,41.9,100,30.02,10.0,NNW,13.8,-,0.01,,Overcast,340,2013-11-27 05:15:00
11:35 PM,41.7,41.7,100,30.03,10.0,NNW,18.4,24.2,0.01,,Overcast,330,2013-11-27 05:35:00
11:55 PM,41.5,41.5,100,30.03,10.0,NNW,19.6,25.3,0.01,,Overcast,330,2013-11-27 05:55:00